Regional Weather Roundup
Issued by NWS Sioux Falls, SD

Home | Current Version | Previous Version | Text Only | Print | Product List | Glossary Off
Versions: 1 2 3 4 5 6 7 8 9 10 11 12 13 14 15 16 17 18 19 20 21 22 23 24 25 26 27 28 29 30 31 32 33 34 35 36 37 38 39 40 41 42 43 44 45 46 47 48 49 50

000
ASUS43 KFSD 221410
RWRFSD

WEATHER ROUNDUP FOR SE SOUTH DAKOTA/SW MINNESOTA/NW IOWA
NATIONAL WEATHER SERVICE SIOUX FALLS SD
800 AM CST SUN JAN 22 2017

NOTE: "FAIR" INDICATES FEW OR NO CLOUDS BELOW 12,000 FEET WITH NO
SIGNIFICANT WEATHER AND OR OBSTRUCTIONS TO VISIBILITY.


SDZ038>040-050-052>070-221500-
SOUTHEAST SOUTH DAKOTA

CITY           SKY/WX    TMP DP  RH WIND       PRES   REMARKS
BROOKINGS      CLOUDY    31  30  96 NW13      29.71R FOG     WCI  21
CHAMBERLAIN    CLEAR     22  21  96 W9        29.78R WCI  12
HURON          CLEAR     20  20 100 N6        29.77R WCI  12
MADISON        CLOUDY    30  30 100 NW13        N/A  WCI  20
MITCHELL       PTCLDY    27  27 100 NW7       29.77R FOG     WCI  19
SIOUX FALLS    FLURRIES  33  32  96 NW10      29.72R WCI  25
WINNER         FAIR      24  21  88 W3        29.79R
YANKTON        CLEAR     28  25  86 NW9       29.75R WCI  20
$$

MNZ071-072-080-081-089-090-097-098-221500-
SOUTHWEST MINNESOTA

CITY           SKY/WX    TMP DP  RH WIND       PRES   REMARKS
FAIRMONT       FOG       34  32  92 NW8       29.69R VSB 1/4 WCI  27
JACKSON        FOG       32  32 100 NW10      29.69R VSB 1/2 WCI  24
LUVERNE        CLOUDY    32  30  93 NW7       29.72R WCI  26
MARSHALL       CLOUDY    33  33 100 NW12      29.71R FOG     WCI  24
MONTEVIDEO     CLOUDY    34  34 100 NW7       29.72R FOG     WCI  28
PIPESTONE      CLOUDY    34  34 100 NW13      29.70R FOG     WCI  25
REDWOOD FALLS  CLOUDY    34  33  96 NW6       29.69R FOG     WCI  29
TRACY          LGT SNOW  34  34 100 NW9       29.71R WCI  26
WINDOM         CLOUDY    34  34 100 NW8       29.69R FOG     WCI  27
WORTHINGTON    FOG       33  32  96 NW9       29.70R VSB 3/4 WCI  25
$$

IAZ001>003-012>014-020>022-031-032-NEZ013-014-SDZ071-221500-
NORTHWEST IOWA

CITY           SKY/WX    TMP DP  RH WIND       PRES   REMARKS
CHEROKEE       CLOUDY    33  32  98 NW7       29.71R WCI  27
DENISON        CLOUDY    32  30  93 NW7       29.69R WCI  26
ESTHERVILLE    FOG       32  32 100 NW10      29.68R VSB 1/4 WCI  24
LE MARS        CLOUDY    34  30  86 NW5       29.73S WCI  30
ORANGE CITY    MIX PCPN  32  32 100 NW10      29.71R WCI  24
SHELDON        LGT RAIN  32  32 100 NW10      29.70R WCI  24
SIOUX CITY     CLOUDY    34  30  85 NW14      29.73R WCI  25
SPENCER          N/A    N/A N/A N/A MISG      29.69R
STORM LAKE     CLOUDY    32  32 100 NW12      29.69R FOG     WCI  23
$$

ABBREVIATIONS USED IN REMARKS
   TC - TEMPERATURE IN CELSIUS
  WCI - WIND CHILL INDEX
   HX - HEAT INDEX
  VSB - VISIBILITY





USA.gov is the U.S. government's official web portal to all federal, state and local government web resources and services.